Location: ??
(35.5052°N, 139.7262°E)
Time: 17:48:47
(UTC+00:00)

Spot 2 Rocket - Pass Details

Date: 20 June 2021
Orbit: 757 x 772 km, 98.5° (Epoch: 30 July)

Event Time Altitude Azimuth Distance (km) Brightness Sun altitude
Exits shadow 12:07:34 42° 161° (SSE) 1,071 3.8 -20.6°
Maximum altitude 12:09:18 85° 77° (ENE) 770 3.4 -20.8°
Drops below altitude 10° 12:14:24 10° 348° (NNW) 2,308 6.9 -21.4°
Sets 12:16:43 0° 348° (NNW) 3,240 7.9 -21.7°
